Regional Weather Roundup
Issued by NWS

Home | Current Version | Previous Version | Graphics & Text | Print | Product List | Glossary On
Versions: 1 2 3 4 5 6 7 8 9 10 11 12 13 14 15 16 17 18 19 20 21 22 23 24 25 26 27 28 29 30 31 32 33 34 35 36 37 38 39 40 41 42 43 44 45 46 47 48 49 50
000
ASUS44 KMEG 012200
RWRTN
TENNESSEE HOURLY STATE WEATHER ROUNDUP
NATIONAL WEATHER SERVICE MEMPHIS TN
500 PM CDT MON JUN 01 2015

TNZ002-004-019-021-049-052-054-088>092-012300-
WEST TENNESSEE

CITY           SKY/WX    TMP DP  RH WIND       PRES   REMARKS
MEMPHIS INTL   PTSUNNY   75  61  61 NW9       30.07F
NWS MEMPHIS      N/A     72 N/A N/A MISG        N/A
JACKSON        CLOUDY    71  61  70 NE3       30.06F
DYERSBURG      CLOUDY    70  50  49 NW6       30.08S
PARIS          CLOUDY    64  59  82 N7        30.07S
LEXINGTON      CLOUDY    68  63  83 NW6       30.05S
$$

TNZ008-025-027-028-033-062-065-066-012300-
NORTH MIDDLE TENNESSEE

CITY           SKY/WX    TMP DP  RH WIND       PRES   REMARKS
NASHVILLE      PTSUNNY   71  64  78 NW8       30.04S
CLARKSVILLE    CLOUDY    66  61  84 N10       30.06S
COOKEVILLE     MOSUNNY   75  68  78 VRB5      30.01S
CROSSVILLE     MOSUNNY   73  63  70 VRB6      30.04F
$$

TNZ061-075-076-078-094-096-097-012300-
SOUTH MIDDLE TENNESSEE

CITY           SKY/WX    TMP DP  RH WIND       PRES   REMARKS
FAYETTEVILLE   SUNNY    N/A N/A N/A MISG      30.04F
TULLAHOMA      MOSUNNY   66  61  82 NW3       30.05S
WINCHESTER     SUNNY     70  61  73 W7        30.04S
MCMINNVILLE    MOSUNNY   72  70  94 NW6       30.03S
COLUMBIA       CLOUDY    68  64  88 NW5       30.04S
SHELBYVILLE    PTSUNNY   72  68  88 NW6       30.05S
$$

TNZ017-018-042-046-047-012300-
NORTHEAST TENNESSEE

CITY           SKY/WX    TMP DP  RH WIND       PRES   REMARKS
TRI CITIES     LGT RAIN  68  66  93 S6        30.03S
ELIZABETHTON   RAIN      68  64  88 NW7       30.05R FOG
$$

TNZ012-013-036-069-073-074-012300-
CENTRAL EAST TENNESSEE

CITY           SKY/WX    TMP DP  RH WIND       PRES   REMARKS
KNOXVILLE      PTSUNNY   81  60  48 W12       29.99S
OAK RIDGE      HVY RAIN  72  62  71 NW3       30.04R
GATLINBURG     CLEAR     81  63  54 S10       30.00R
$$

TNZ083-085-099-012300-
SOUTHEAST TENNESSEE

CITY           SKY/WX    TMP DP  RH WIND       PRES   REMARKS
CHATTANOOGA    PTSUNNY   79  63  57 S10       30.00S
$$

SKY/WX REPORTED AS FAIR MEANS FEW OR NO CLOUDS BELOW
12 THOUSAND FEET.



USA.gov is the U.S. government's official web portal to all federal, state and local government web resources and services.